Content
SEND FEEDBACK

Daily
Averages
Monthly
Summary
United States of America

BELLEVILLE, MICHIGAN


Home > North America > United States > Michigan
Elevation: 780 feet     Latitude: 42 14N     Longitude: 083 32W

WEATHER
 
SELECT A DAY
Number of Records: 202,542;   Date Range: 1/1/95 - 7/23/14
 
SHARE

PRINT THIS DATA

[ ← Previous Day ]
WEATHER ALMANAC - FEBRUARY 24, 2014
[ Next Day → ]
[ °C ]   °F
Weather ElementAverageHighLow
Temperature23.1 °F27 °F (1:53 pm)19 °F (1:53 am)
Dewpoint10.1 °F12.9 °F (11:30 pm)7 °F (6:53 am)
Humidity58 %74 % (11:30 pm)51 % (1:53 pm)
Barometer30.13 in30.18 in (8:53 pm)30.06 in (2:53 am)
Wind Speed15.9 mph23 mph (3:53 pm)
Wind Gust31.1 mph (3:53 pm)
Weather ElementAverage
Visibility9.5 mi
Wind DirectionWNW (278 °)

Weather ElementTotal
Precipitation---
Heating Degree Days42 (Base 65)
Averaged from 25 records on February 24, 2014
WEATHER CONDITIONS BREAKOUT
WIND DIRECTION BREAKOUT
WEATHER BY HOUR - FEBRUARY 24, 2014
[ °C ]   °F
Local TimeTemperatureDewpointHumidityBarometerVisibilityWind DirectionWind SpeedGust SpeedPrecipitationEventsConditions
1:53 AM19.0 °F8.1 °F62 %30.07 in10.0 miWSW (240°)9.2 mphPartly Cloudy
2:53 AM21.9 °F10.9 °F63 %30.06 in10.0 miWSW (240°)9.2 mphOvercast
3:53 AM23.0 °F12.0 °F63 %30.06 in10.0 miWest (280°)13.8 mphOvercast
4:53 AM23.0 °F10.0 °F58 %30.08 in10.0 miWNW (300°)16.1 mph24.2 mph0.00 inOvercast
5:53 AM21.9 °F8.1 °F55 %30.09 in10.0 miWNW (300°)17.3 mphOvercast
6:53 AM21.0 °F7.0 °F55 %30.10 in10.0 miWNW (290°)18.4 mphOvercast
7:53 AM21.0 °F9.0 °F60 %30.12 in10.0 miWest (280°)18.4 mph24.2 mphOvercast
8:53 AM21.9 °F9.0 °F58 %30.14 in10.0 miWest (270°)15.0 mph0.00 inOvercast
9:53 AM23.0 °F9.0 °F55 %30.14 in10.0 miWest (270°)15.0 mph0.00 inOvercast
10:53 AM24.1 °F10.0 °F55 %30.14 in10.0 miWest (270°)18.4 mph0.00 inOvercast
11:53 AM24.1 °F10.9 °F57 %30.15 in9.0 miWNW (290°)17.3 mph0.00 inSnowLight Snow
12:53 PM26.1 °F10.9 °F53 %30.13 in10.0 miWSW (250°)21.9 mph0.00 inOvercast
1:53 PM27.0 °F10.9 °F51 %30.13 in10.0 miWest (270°)19.6 mph26.5 mph0.00 inOvercast
2:53 PM27.0 °F10.9 °F51 %30.13 in10.0 miWest (260°)21.9 mph0.00 inOvercast
3:53 PM27.0 °F10.9 °F51 %30.14 in10.0 miWest (260°)23.0 mph31.1 mph0.00 inMostly Cloudy
4:53 PM26.1 °F10.9 °F53 %30.15 in10.0 miWest (260°)18.4 mphOvercast
5:53 PM24.1 °F9.0 °F53 %30.15 in10.0 miWest (260°)18.4 mphScattered Clouds
6:53 PM24.1 °F10.0 °F55 %30.16 in10.0 miWest (260°)15.0 mphOvercast
7:53 PM24.1 °F10.0 °F55 %30.17 in10.0 miWest (280°)15.0 mphOvercast
8:53 PM23.0 °F10.0 °F58 %30.18 in10.0 miWNW (290°)15.0 mph25.3 mphOvercast
9:53 PM23.0 °F9.0 °F55 %30.17 in10.0 miWest (270°)12.7 mphOvercast
10:53 PM23.0 °F10.0 °F58 %30.17 in10.0 miWest (270°)15.0 mphOvercast
11:30 PM19.9 °F12.9 °F74 %30.13 in2.5 miNorth (350°)13.8 mph0.00 inSnowLight Snow
11:41 PM19.9 °F12.0 °F71 %30.14 in5.0 miNW (320°)11.5 mph0.00 inSnowLight Snow
11:53 PM19.9 °F12.0 °F71 %30.17 in10.0 miNW (320°)8.1 mph0.00 inOvercast
Hourly data recorded from KYIP, located miles away from Belleville, Michigan







STORIES FROM OUR PARTNERS